FW5313 Weather Reports


Display with metric or nautical units.
time (UTC)temp
F
wind
direction
speed
MPH
gust
MPH
rain 1hr
in
rain 24hr
in
rain mn
in
humidity
%
barometer
mb
20260831161557 72 0 0.0 2.0 0.00 0.00 0.00 57 1020.1
20260831161048 72 297 0.0 2.0 0.00 0.00 0.00 59 1020.2
20260831160547 72 200 0.0 4.0 0.00 0.00 0.00 57 1020.1
20260831155546 71 27 1.0 3.0 0.00 0.00 0.00 53 1020.2
20260831155047 70 311 0.0 2.0 0.00 0.00 0.00 69 1020.1
20260831154624 69 174 0.0 2.0 0.00 0.00 0.00 66 1020.1
20260831154044 68 248 0.0 2.0 0.00 0.00 0.00 68 1020.1
20260831153545 67 150 0.0 2.0 0.00 0.00 0.00 57 1020.2
20260831153058 66 0 0.0 2.0 0.00 0.00 0.00 70 1020.2
20260831152545 65 229 0.0 2.0 0.00 0.00 0.00 66 1020.2
20260831152045 65 0 0.0 2.0 0.00 0.00 0.00 70 1020.2
20260831151613 64 231 0.0 2.0 0.00 0.00 0.00 66 1020.1
20260831151047 64 101 0.0 2.0 0.00 0.00 0.00 71 1020.1
20260831150547 63 0 0.0 2.0 0.00 0.00 0.00 68 1020.0
20260831150100 63 114 0.0 1.0 0.00 0.00 0.00 74 1020.0
20260831145544 62 0 0.0 1.0 0.00 0.00 0.00 81 1019.9
20260831145045 62 0 0.0 1.0 0.00 0.00 0.00 79 1020.1
20260831144607 62 0 0.0 1.0 0.00 0.00 0.00 81 1020.1
20260831144045 61 0 0.0 1.0 0.00 0.00 0.00 81 1020.0
20260831143545 61 0 0.0 1.0 0.00 0.00 0.00 79 1020.1
20260831143108 61 0 0.0 1.0 0.00 0.00 0.00 78 1020.2
20260831142545 60 0 0.0 1.0 0.00 0.00 0.00 81 1020.2
20260831142044 60 0 0.0 0.0 0.00 0.00 0.00 86 1020.4
20260831141600 60 165 0.0 0.0 0.00 0.00 0.00 85 1020.4
20260831141045 60 0 0.0 1.0 0.00 0.00 0.00 87 1020.3
20260831140545 59 0 0.0 1.0 0.00 0.00 0.00 86 1020.3
20260831140058 59 0 0.0 0.0 0.00 0.00 0.00 88 1020.4
20260831135545 59 0 0.0 0.0 0.00 0.00 0.00 88 1020.4
20260831135045 59 0 0.0 1.0 0.00 0.00 0.00 89 1020.6
20260831134559 58 0 0.0 2.0 0.00 0.00 0.00 89 1020.5
20260831134047 58 0 0.0 2.0 0.00 0.00 0.00 90 1020.5
20260831133544 57 0 0.0 0.0 0.00 0.00 0.00 91 1020.5
20260831133101 57 0 0.0 0.0 0.00 0.00 0.00 92 1020.6
20260831132543 56 0 0.0 1.0 0.00 0.00 0.00 92 1020.6
20260831132045 56 0 0.0 1.0 0.00 0.00 0.00 92 1020.6
20260831131610 56 0 0.0 1.0 0.00 0.00 0.00 92 1020.6
20260831131042 56 0 0.0 1.0 0.00 0.00 0.00 92 1020.6
20260831130543 55 23 0.0 0.0 0.00 0.00 0.00 93 1020.7
20260831130129 55 0 0.0 0.0 0.00 0.00 0.00 94 1020.8
20260831125545 54 0 0.0 0.0 0.00 0.00 0.00 93 1020.7
20260831125045 54 0 0.0 0.0 0.00 0.00 0.00 93 1020.9
20260831124603 54 0 0.0 0.0 0.00 0.00 0.00 93 1021.1
20260831124043 53 0 0.0 0.0 0.00 0.00 0.00 94 1020.9
20260831123542 53 0 0.0 0.0 0.00 0.00 0.00 94 1020.9
20260831123101 53 0 0.0 0.0 0.00 0.00 0.00 94 1021.0
20260831122542 53 0 0.0 0.0 0.00 0.00 0.00 95 1020.9
20260831122045 53 0 0.0 0.0 0.00 0.00 0.00 95 1020.9
20260831121609 52 0 0.0 0.0 0.00 0.00 0.00 94 1020.8
20260831121045 52 0 0.0 0.0 0.00 0.00 0.00 94 1020.7
20260831120544 52 0 0.0 0.0 0.00 0.00 0.00 94 1020.7
20260831120105 52 0 0.0 0.0 0.00 0.00 0.00 93 1020.7
20260831115545 52 0 0.0 0.0 0.00 0.00 0.00 93 1020.7
20260831115045 52 0 0.0 0.0 0.00 0.00 0.00 93 1020.7
20260831114605 52 0 0.0 0.0 0.00 0.00 0.00 93 1020.6
20260831114042 52 0 0.0 0.0 0.00 0.00 0.00 93 1020.5
20260831113546 52 0 0.0 0.0 0.00 0.00 0.00 93 1020.6
20260831113104 52 0 0.0 0.0 0.00 0.00 0.00 92 1020.4
20260831112545 52 0 0.0 0.0 0.00 0.00 0.00 92 1020.3
20260831112045 52 0 0.0 0.0 0.00 0.00 0.00 93 1020.3
20260831111605 52 0 0.0 0.0 0.00 0.00 0.00 93 1020.4
20260831111045 52 0 0.0 0.0 0.00 0.00 0.00 92 1020.4
20260831110544 52 0 0.0 0.0 0.00 0.00 0.00 92 1020.3
20260831110106 52 0 0.0 1.0 0.00 0.00 0.00 92 1020.3
20260831105544 52 0 0.0 1.0 0.00 0.00 0.00 92 1020.2
20260831105046 52 0 0.0 1.0 0.00 0.00 0.00 92 1020.1
20260831104604 52 0 0.0 1.0 0.00 0.00 0.00 92 1020.1
20260831104043 52 0 0.0 1.0 0.00 0.00 0.00 92 1020.1
20260831103545 52 0 0.0 0.0 0.00 0.00 0.00 92 1020.0
20260831103103 52 0 0.0 0.0 0.00 0.00 0.00 92 1020.1
20260831102545 52 0 0.0 0.0 0.00 0.00 0.00 91 1020.1
20260831102045 52 0 0.0 0.0 0.00 0.00 0.00 91 1020.1
20260831101608 52 0 0.0 0.0 0.00 0.00 0.00 91 1020.1
20260831101045 52 0 0.0 0.0 0.00 0.00 0.00 91 1020.1
20260831100542 52 0 0.0 0.0 0.00 0.00 0.00 91 1020.1
20260831100105 52 0 0.0 1.0 0.00 0.00 0.00 91 1020.1
20260831095544 52 0 0.0 1.0 0.00 0.00 0.00 90 1020.0
20260831095045 52 0 0.0 1.0 0.00 0.00 0.00 91 1019.9
20260831094635 52 23 0.0 0.0 0.00 0.00 0.00 91 1019.9
20260831094043 52 0 0.0 0.0 0.00 0.00 0.00 91 1019.9
20260831093543 52 0 0.0 0.0 0.00 0.00 0.00 91 1019.8
20260831093102 52 0 0.0 0.0 0.00 0.00 0.00 91 1019.9
20260831092549 52 0 0.0 1.0 0.00 0.00 0.00 91 1019.8
20260831092045 52 0 0.0 1.0 0.00 0.00 0.00 91 1019.8
20260831091615 52 0 0.0 0.0 0.00 0.00 0.00 91 1019.8
20260831091042 52 0 0.0 0.0 0.00 0.00 0.00 91 1019.7
20260831090543 52 0 0.0 1.0 0.00 0.00 0.00 90 1019.7
20260831090105 52 0 0.0 1.0 0.00 0.00 0.00 90 1019.5
20260831085545 52 0 0.0 1.0 0.00 0.00 0.00 90 1019.5
20260831085045 53 0 0.0 0.0 0.00 0.00 0.00 90 1019.5
20260831084604 53 0 0.0 1.0 0.00 0.00 0.00 90 1019.5
20260831084045 53 0 0.0 1.0 0.00 0.00 0.00 89 1019.4
20260831083542 53 0 0.0 1.0 0.00 0.00 0.00 90 1019.5
20260831083105 53 0 0.0 1.0 0.00 0.00 0.00 91 1019.5
20260831082542 53 23 0.0 1.0 0.00 0.00 0.00 91 1019.5
20260831082045 53 23 0.0 1.0 0.00 0.00 0.00 91 1019.4
20260831081602 53 0 0.0 0.0 0.00 0.00 0.00 91 1019.5
20260831081042 53 0 0.0 0.0 0.00 0.00 0.00 91 1019.5
20260831080542 53 0 0.0 0.0 0.00 0.00 0.00 91 1019.4
20260831080108 53 0 0.0 0.0 0.00 0.00 0.00 91 1019.4
20260831075544 53 0 0.0 0.0 0.00 0.00 0.00 90 1019.4
20260831075049 53 0 0.0 0.0 0.00 0.00 0.00 90 1019.2
20260831074600 54 0 0.0 0.0 0.00 0.00 0.00 89 1019.2
20260831074045 54 0 0.0 0.0 0.00 0.00 0.00 89 1019.3
20260831073542 54 0 0.0 0.0 0.00 0.00 0.00 88 1019.2
20260831073105 54 0 0.0 0.0 0.00 0.00 0.00 87 1019.2
20260831072544 54 0 0.0 0.0 0.00 0.00 0.00 87 1019.2
20260831072041 55 0 0.0 0.0 0.00 0.00 0.00 86 1019.1
20260831071614 55 0 0.0 0.0 0.00 0.00 0.00 86 1019.0
20260831071057 55 0 0.0 0.0 0.00 0.00 0.00 85 1018.9
20260831070544 56 0 0.0 0.0 0.00 0.00 0.00 84 1019.0
20260831065545 56 0 0.0 0.0 0.00 0.00 0.00 85 1018.7
20260831065045 56 0 0.0 0.0 0.00 0.00 0.00 85 1018.6
20260831064604 56 0 0.0 0.0 0.00 0.00 0.00 84 1018.7
20260831064045 56 0 0.0 0.0 0.00 0.00 0.00 84 1018.6
20260831063544 56 0 0.0 0.0 0.00 0.00 0.00 83 1018.8
20260831063117 57 0 0.0 0.0 0.00 0.00 0.00 83 1018.8
20260831062545 57 0 0.0 0.0 0.00 0.00 0.00 82 1018.8
20260831062045 58 0 0.0 0.0 0.00 0.00 0.00 82 1018.8
20260831061600 58 0 0.0 0.0 0.00 0.00 0.00 82 1018.7
20260831061043 58 0 0.0 0.0 0.00 0.00 0.00 81 1018.8
20260831060544 59 0 0.0 1.0 0.00 0.00 0.00 82 1018.8
20260831060111 59 0 0.0 1.0 0.00 0.00 0.00 81 1018.9
20260831055545 59 0 0.0 1.0 0.00 0.00 0.00 82 1019.0
20260831055045 59 0 0.0 1.0 0.00 0.00 0.00 80 1019.0
20260831054601 59 0 0.0 1.0 0.00 0.00 0.00 81 1019.0
20260831054049 59 0 0.0 1.0 0.00 0.00 0.00 81 1018.9
20260831053544 59 0 0.0 1.0 0.00 0.00 0.00 81 1019.0
20260831053102 59 23 0.0 1.0 0.00 0.00 0.00 81 1019.0
20260831052545 59 23 0.0 2.0 0.00 0.00 0.00 82 1018.9
20260831052042 59 23 0.0 2.0 0.00 0.00 0.00 82 1018.9
20260831051614 59 107 0.0 1.0 0.00 0.00 0.00 83 1019.0
20260831051045 59 107 0.0 1.0 0.00 0.00 0.00 83 1018.9
20260831050545 59 0 0.0 1.0 0.00 0.00 0.00 84 1018.9
20260831050108 59 107 0.0 1.0 0.00 0.00 0.00 84 1019.0
20260831045545 59 0 0.0 1.0 0.00 0.00 0.00 85 1018.9
20260831045044 59 0 0.0 1.0 0.00 0.00 0.00 86 1019.0
20260831044600 59 0 0.0 3.0 0.00 0.00 0.00 86 1018.9
20260831044047 58 0 0.0 3.0 0.00 0.00 0.00 86 1018.9
20260831043542 58 0 0.0 1.0 0.00 0.00 0.00 88 1018.9
20260831043102 58 0 0.0 1.0 0.00 0.00 0.00 90 1018.9
20260831042542 58 0 0.0 1.0 0.00 0.00 0.00 92 1018.9
20260831042047 58 0 0.0 1.0 0.00 0.00 0.00 92 1018.7
20260831041602 58 0 0.0 1.0 0.00 0.00 0.00 92 1018.7
20260831041045 58 114 0.0 1.0 0.00 0.00 0.00 92 1018.7
20260831040547 58 0 0.0 1.0 0.00 0.00 0.00 92 1018.7
20260831040105 58 0 0.0 0.0 0.00 0.00 0.00 90 1018.8
20260831035546 58 0 0.0 0.0 0.00 0.00 0.00 89 1018.7
20260831035047 59 0 0.0 1.0 0.00 0.00 0.00 88 1018.6
20260831034606 59 0 0.0 1.0 0.00 0.00 0.00 88 1018.7
20260831034047 59 239 0.0 2.0 0.00 0.00 0.00 87 1018.7
20260831033546 60 0 0.0 2.0 0.00 0.00 0.00 89 1018.5
20260831033102 60 0 0.0 1.0 0.00 0.00 0.00 89 1018.6
20260831032547 61 247 0.0 1.0 0.00 0.00 0.00 89 1018.6
20260831032047 61 0 0.0 1.0 0.00 0.00 0.00 89 1018.7
20260831031557 61 0 0.0 1.0 0.00 0.00 0.00 90 1018.8
20260831031046 61 32 0.0 2.0 0.00 0.00 0.00 90 1018.7
20260831030546 61 0 0.0 2.0 0.00 0.00 0.00 89 1018.6
20260831030100 61 73 0.0 1.0 0.00 0.00 0.00 89 1018.7
20260831025546 61 0 0.0 1.0 0.00 0.00 0.00 89 1018.5
20260831025046 61 0 0.0 1.0 0.00 0.00 0.00 89 1018.6
20260831024607 61 0 0.0 1.0 0.00 0.00 0.00 89 1018.6
20260831024046 62 0 0.0 1.0 0.00 0.00 0.00 89 1018.5
20260831023545 62 0 0.0 0.0 0.00 0.00 0.00 90 1018.5
20260831023107 62 0 0.0 1.0 0.00 0.00 0.00 90 1018.5
20260831022546 62 0 0.0 1.0 0.00 0.00 0.00 89 1018.5
20260831022046 62 0 0.0 1.0 0.00 0.00 0.00 89 1018.6
20260831021558 62 0 0.0 1.0 0.00 0.00 0.00 89 1018.5
20260831021046 62 0 0.0 1.0 0.00 0.00 0.00 90 1018.5
20260831020546 62 0 0.0 1.0 0.00 0.00 0.00 90 1018.5
20260831020113 62 0 0.0 0.0 0.00 0.00 0.00 89 1018.4
20260831015546 62 0 0.0 0.0 0.00 0.00 0.00 89 1018.3
20260831015045 62 0 0.0 0.0 0.00 0.00 0.00 89 1018.3
20260831014559 62 0 0.0 0.0 0.00 0.00 0.00 90 1018.3
20260831014047 62 0 0.0 0.0 0.00 0.00 0.00 89 1018.1
20260831013547 62 0 0.0 1.0 0.00 0.00 0.00 89 1018.1
20260831013100 62 0 0.0 1.0 0.00 0.00 0.00 89 1018.0
20260831012547 62 0 0.0 0.0 0.00 0.00 0.00 89 1018.0
20260831012046 62 0 0.0 2.0 0.00 0.00 0.00 89 1017.9
20260831011607 62 0 0.0 2.0 0.00 0.00 0.00 88 1017.7
20260831011047 62 146 0.0 2.0 0.00 0.00 0.00 88 1017.7
20260831010547 62 98 0.0 1.0 0.00 0.00 0.00 90 1017.6
20260831005549 62 0 0.0 2.0 0.00 0.00 0.00 90 1017.6
20260831005047 62 0 0.0 2.0 0.00 0.00 0.00 90 1017.6
20260831004602 62 77 0.0 1.0 0.00 0.00 0.00 89 1017.5
20260831004049 62 0 0.0 1.0 0.00 0.00 0.00 90 1017.5
20260831003545 62 0 0.0 1.0 0.00 0.00 0.00 90 1017.4
20260831003102 62 0 0.0 1.0 0.00 0.00 0.00 90 1017.3
20260831002546 62 0 0.0 0.0 0.00 0.00 0.00 90 1017.4
20260831002045 62 0 0.0 2.0 0.00 0.00 0.00 90 1017.3
20260831001604 62 0 0.0 2.0 0.00 0.00 0.00 90 1017.2
20260831001046 61 56 0.0 1.0 0.00 0.00 0.00 90 1017.0
20260831000546 62 0 0.0 1.0 0.00 0.00 0.00 90 1016.9
20260831000104 62 0 0.0 3.0 0.00 0.00 0.00 90 1016.9
20260830235546 62 48 0.0 5.0 0.00 0.00 0.00 91 1016.7
20260830235048 61 0 0.0 5.0 0.00 0.00 0.00 91 1016.5
20260830234612 61 0 1.0 5.0 0.00 0.00 0.00 91 1016.6
20260830234049 61 178 0.0 0.0 0.00 0.00 0.00 92 1016.7
20260830233545 61 0 0.0 0.0 0.00 0.00 0.00 91 1016.5
20260830233057 61 0 0.0 0.0 0.00 0.00 0.00 91 1016.5
20260830232545 61 0 0.0 0.0 0.00 0.00 0.00 91 1016.5
20260830232045 61 0 0.0 1.0 0.00 0.00 0.00 91 1016.5
20260830231602 62 0 0.0 1.0 0.00 0.00 0.00 91 1016.5
20260830231047 62 186 0.0 0.0 0.00 0.00 0.00 91 1016.3
20260830230545 62 0 0.0 0.0 0.00 0.00 0.00 90 1016.4
20260830230100 62 0 0.0 0.0 0.00 0.00 0.00 90 1016.6
20260830225545 62 0 0.0 0.0 0.00 0.00 0.00 89 1016.9
20260830225045 63 0 0.0 1.0 0.00 0.00 0.00 89 1016.7
20260830224608 63 186 0.0 1.0 0.00 0.00 0.00 88 1016.8
20260830224045 63 0 0.0 1.0 0.00 0.00 0.00 87 1016.8
20260830223545 64 0 0.0 0.0 0.00 0.00 0.00 86 1016.9
20260830223058 64 0 0.0 0.0 0.00 0.00 0.00 85 1016.8
20260830222545 64 0 0.0 0.0 0.00 0.00 0.00 84 1016.6
20260830222046 64 0 0.0 0.0 0.00 0.00 0.00 83 1016.5
20260830221603 65 0 0.0 0.0 0.00 0.00 0.00 82 1016.4
20260830221045 65 0 0.0 0.0 0.00 0.00 0.00 82 1016.4
20260830220545 65 0 0.0 0.0 0.00 0.00 0.00 81 1016.2
20260830220114 65 0 0.0 0.0 0.00 0.00 0.00 80 1016.3
20260830215546 65 0 0.0 0.0 0.00 0.00 0.00 81 1016.2
20260830215045 65 0 0.0 0.0 0.00 0.00 0.00 81 1016.1
20260830214555 66 0 0.0 1.0 0.00 0.00 0.00 80 1016.2
20260830214045 66 158 0.0 1.0 0.00 0.00 0.00 80 1016.3
20260830213545 66 162 0.0 0.0 0.00 0.00 0.00 80 1016.4
20260830213125 66 162 0.0 0.0 0.00 0.00 0.00 79 1016.3
20260830212546 66 0 0.0 3.0 0.00 0.00 0.00 79 1016.5
20260830212047 66 0 0.0 3.0 0.00 0.00 0.00 79 1016.3
20260830211603 66 152 0.0 3.0 0.00 0.00 0.00 78 1016.4
20260830211045 66 0 0.0 3.0 0.00 0.00 0.00 79 1016.5
20260830210546 66 0 0.0 3.0 0.00 0.00 0.00 76 1016.4
20260830205545 66 0 0.0 0.0 0.00 0.00 0.00 77 1016.5
20260830205046 66 0 0.0 1.0 0.00 0.00 0.00 76 1016.4
20260830204611 67 0 0.0 1.0 0.00 0.00 0.00 79 1016.4
20260830204050 66 0 0.0 1.0 0.00 0.00 0.00 79 1016.3
20260830203546 66 0 0.0 1.0 0.00 0.00 0.00 79 1016.2
20260830203109 66 0 0.0 2.0 0.00 0.00 0.00 78 1016.3
20260830202547 66 0 0.0 2.0 0.00 0.00 0.00 78 1016.2
20260830202049 66 0 0.0 2.0 0.00 0.00 0.00 76 1016.6
20260830201604 66 0 0.0 1.0 0.00 0.00 0.00 78 1016.5
20260830201045 66 0 0.0 1.0 0.00 0.00 0.00 79 1016.5
20260830200546 66 81 0.0 1.0 0.00 0.00 0.00 78 1016.5
20260830200057 66 0 0.0 5.0 0.00 0.00 0.00 79 1016.6
20260830195547 66 0 0.0 5.0 0.00 0.00 0.00 79 1016.4
20260830195050 66 82 0.0 1.0 0.00 0.00 0.00 78 1016.7
20260830194605 66 0 0.0 1.0 0.00 0.00 0.00 77 1016.7
20260830194045 66 0 0.0 0.0 0.00 0.00 0.00 79 1016.9
20260830193544 66 0 0.0 0.0 0.00 0.00 0.00 78 1017.0
20260830193101 66 0 0.0 0.0 0.00 0.00 0.00 78 1016.9
20260830192545 66 0 0.0 0.0 0.00 0.00 0.00 79 1016.8
20260830192045 66 0 0.0 0.0 0.00 0.00 0.00 77 1017.0
20260830191559 66 0 0.0 0.0 0.00 0.00 0.00 79 1017.0
20260830191046 66 0 0.0 1.0 0.00 0.00 0.00 79 1017.1
20260830190547 66 0 0.0 2.0 0.00 0.00 0.00 78 1017.0
20260830190104 66 95 0.0 2.0 0.00 0.00 0.00 77 1017.2
20260830185546 66 98 0.0 1.0 0.00 0.00 0.00 77 1017.2
20260830185046 66 0 0.0 1.0 0.00 0.00 0.00 77 1017.2
20260830184606 66 0 0.0 1.0 0.00 0.00 0.00 81 1017.4
20260830184045 66 0 0.0 1.0 0.00 0.00 0.00 78 1017.4
20260830183545 66 0 0.0 1.0 0.00 0.00 0.00 78 1017.4
20260830183103 66 0 0.0 1.0 0.00 0.00 0.00 79 1017.6
20260830182545 66 0 0.0 1.0 0.00 0.00 0.00 76 1017.6
20260830182045 66 98 0.0 1.0 0.00 0.00 0.00 77 1017.7
20260830181604 66 0 0.0 1.0 0.00 0.00 0.00 78 1017.8
20260830181049 66 0 0.0 5.0 0.00 0.00 0.00 76 1017.8
20260830180544 65 0 1.0 5.0 0.00 0.00 0.00 73 1017.8
20260830180106 65 69 0.0 1.0 0.00 0.00 0.00 79 1018.0
20260830175545 65 0 0.0 1.0 0.00 0.00 0.00 79 1018.0
20260830175044 65 0 0.0 1.0 0.00 0.00 0.00 79 1018.0
20260830174604 65 0 0.0 1.0 0.00 0.00 0.00 78 1018.0
20260830174049 66 0 0.0 1.0 0.00 0.00 0.00 80 1018.0
20260830173549 66 69 0.0 1.0 0.00 0.00 0.00 80 1018.0
20260830173059 66 0 0.0 1.0 0.00 0.00 0.00 80 1018.1
20260830172545 66 0 0.0 1.0 0.00 0.00 0.00 81 1018.2
20260830172046 66 0 0.0 1.0 0.00 0.00 0.00 79 1018.4
20260830171554 66 0 0.0 1.0 0.00 0.00 0.00 82 1018.4
20260830171049 66 0 0.0 2.0 0.00 0.00 0.00 80 1018.4
20260830170548 66 0 0.0 2.0 0.00 0.00 0.00 79 1018.5
20260830165547 65 0 0.0 3.0 0.00 0.00 0.00 81 1018.5
20260830165045 65 0 0.0 3.0 0.00 0.00 0.00 80 1018.5
20260830164602 65 0 0.0 1.0 0.00 0.00 0.00 80 1018.7
20260830164047 65 121 0.0 1.0 0.00 0.00 0.00 81 1018.9
20260830163548 65 117 0.0 1.0 0.00 0.00 0.00 83 1019.0
20260830163108 65 0 0.0 1.0 0.00 0.00 0.00 82 1019.2
20260830162544 65 116 0.0 1.0 0.00 0.00 0.00 81 1019.0
20260830162044 65 139 0.0 1.0 0.00 0.00 0.00 81 1018.8